CPA976 RPLL-VHHH

Flight info

Callsign CPA976
Flight time N/A
Altitude 34000
Route CAB2R/06 CAB A461 NOMAN V533 BETTY BETY3A/07C
Aircraft A359/H-SDE2E3GHIJ1J3J4J5LM1ORWXYZ/LB1D1

Departure

Time 2026-05-05 18:42
Airport Ninoy Aquino International Airport (RPLL)

Arrival

Time N/A
Airport Hong Kong International Airport (VHHH)
Time Latitude Longitude Altitude Speed Heading
2026-05-05 18:17 14.51890 121.01265 88 ft 0 kts 46°
2026-05-05 18:28 14.51883 121.01257 89 ft 2 kts 46°
2026-05-05 18:29 14.51873 121.01247 89 ft 2 kts 46°
2026-05-05 18:29 14.51862 121.01235 89 ft 2 kts 46°
2026-05-05 18:29 14.51853 121.01224 89 ft 2 kts 65°
2026-05-05 18:29 14.51849 121.01209 89 ft 2 kts 85°
2026-05-05 18:30 14.51849 121.01194 89 ft 2 kts 103°
2026-05-05 18:30 14.51854 121.01180 89 ft 2 kts 121°
2026-05-05 18:30 14.51860 121.01170 89 ft 0 kts 134°
2026-05-05 18:30 14.51863 121.01168 89 ft 0 kts 135°
2026-05-05 18:33 14.51862 121.01168 89 ft 0 kts 135°
2026-05-05 18:33 14.51850 121.01181 88 ft 5 kts 134°
2026-05-05 18:33 14.51805 121.01229 89 ft 12 kts 134°
2026-05-05 18:33 14.51740 121.01296 89 ft 13 kts 135°
2026-05-05 18:34 14.51672 121.01366 89 ft 14 kts 135°
2026-05-05 18:34 14.51597 121.01444 89 ft 16 kts 134°
2026-05-05 18:34 14.51523 121.01520 89 ft 14 kts 135°
2026-05-05 18:34 14.51448 121.01598 89 ft 15 kts 134°
2026-05-05 18:35 14.51374 121.01675 89 ft 15 kts 134°
2026-05-05 18:35 14.51289 121.01761 88 ft 19 kts 136°
2026-05-05 18:35 14.51197 121.01856 89 ft 16 kts 135°
2026-05-05 18:35 14.51117 121.01941 89 ft 14 kts 134°
2026-05-05 18:36 14.51065 121.01980 89 ft 6 kts 178°
2026-05-05 18:36 14.51026 121.01953 89 ft 9 kts 230°
2026-05-05 18:36 14.50977 121.01872 89 ft 17 kts 239°
2026-05-05 18:36 14.50914 121.01759 88 ft 20 kts 240°
2026-05-05 18:37 14.50837 121.01620 89 ft 25 kts 240°
2026-05-05 18:37 14.50747 121.01459 88 ft 28 kts 240°
2026-05-05 18:37 14.50653 121.01289 89 ft 27 kts 240°
2026-05-05 18:37 14.50562 121.01125 88 ft 26 kts 240°
2026-05-05 18:38 14.50471 121.00960 88 ft 26 kts 240°
2026-05-05 18:38 14.50384 121.00803 88 ft 26 kts 240°
2026-05-05 18:38 14.50291 121.00639 88 ft 27 kts 241°
2026-05-05 18:38 14.50203 121.00479 89 ft 22 kts 240°
2026-05-05 18:39 14.50131 121.00350 88 ft 17 kts 240°
2026-05-05 18:39 14.50070 121.00240 89 ft 19 kts 241°
2026-05-05 18:39 14.50000 121.00114 89 ft 18 kts 239°
2026-05-05 18:39 14.49934 120.99998 88 ft 12 kts 235°
2026-05-05 18:40 14.49876 120.99974 88 ft 8 kts 166°
2026-05-05 18:40 14.49817 121.00008 88 ft 9 kts 134°
2026-05-05 18:40 14.49811 121.00058 88 ft 9 kts 73°
2026-05-05 18:40 14.49843 121.00124 89 ft 11 kts 62°
2026-05-05 18:41 14.49879 121.00186 89 ft 14 kts 60°
2026-05-05 18:41 14.50038 121.00472 89 ft 82 kts 60°
2026-05-05 18:41 14.50431 121.01179 89 ft 144 kts 60°
2026-05-05 18:41 14.50995 121.02165 435 ft 165 kts 60°
2026-05-05 18:42 14.51553 121.03127 1209 ft 158 kts 62°
2026-05-05 18:42 14.52101 121.04137 1749 ft 165 kts 63°
2026-05-05 18:42 14.52661 121.05181 2149 ft 172 kts 63°
2026-05-05 18:42 14.53263 121.06293 2455 ft 186 kts 63°
2026-05-05 18:43 14.53923 121.07502 2758 ft 203 kts 62°
2026-05-05 18:43 14.54642 121.08813 3137 ft 219 kts 61°
2026-05-05 18:43 14.55431 121.10230 3557 ft 235 kts 61°
2026-05-05 18:43 14.56270 121.11729 3989 ft 251 kts 59°
2026-05-05 18:44 14.57470 121.13074 4396 ft 269 kts 30°
2026-05-05 18:44 14.59290 121.13590 4875 ft 281 kts 357°
2026-05-05 18:44 14.61218 121.13403 5628 ft 284 kts 351°
2026-05-05 18:44 14.63127 121.13126 6435 ft 286 kts 349°
2026-05-05 18:45 14.65052 121.12841 7260 ft 288 kts 349°
2026-05-05 18:45 14.67042 121.12558 8052 ft 292 kts 350°
2026-05-05 18:45 14.69052 121.12286 8812 ft 297 kts 350°
2026-05-05 18:45 14.71088 121.12023 9653 ft 298 kts 350°
2026-05-05 18:46 14.73134 121.11764 10564 ft 297 kts 350°
2026-05-05 18:46 14.75199 121.11503 11072 ft 310 kts 350°
2026-05-05 18:46 14.77370 121.11227 11474 ft 326 kts 351°
2026-05-05 18:46 14.79680 121.10938 11855 ft 343 kts 351°
2026-05-05 18:47 14.82076 121.10639 12203 ft 359 kts 351°
2026-05-05 18:47 14.84607 121.10325 12522 ft 375 kts 351°
2026-05-05 18:47 14.87154 121.10011 12855 ft 389 kts 351°
2026-05-05 18:47 14.89837 121.09682 13436 ft 395 kts 352°
2026-05-05 18:48 14.92568 121.09347 14152 ft 398 kts 352°
2026-05-05 18:48 14.95285 121.09013 14850 ft 400 kts 352°
2026-05-05 18:48 14.98058 121.08671 15529 ft 402 kts 352°
2026-05-05 18:48 15.00821 121.08329 16190 ft 404 kts 352°
2026-05-05 18:49 15.03585 121.07987 16836 ft 407 kts 353°
2026-05-05 18:49 15.06407 121.07638 17471 ft 409 kts 353°
2026-05-05 18:49 15.09230 121.07289 18063 ft 412 kts 353°
2026-05-05 18:49 15.12051 121.06941 18629 ft 415 kts 353°
2026-05-05 18:50 15.14891 121.06591 19177 ft 419 kts 353°
2026-05-05 18:50 15.17767 121.06236 19717 ft 422 kts 353°
2026-05-05 18:50 15.20677 121.05876 20243 ft 425 kts 354°
2026-05-05 18:50 15.23534 121.05523 20744 ft 429 kts 354°
2026-05-05 18:51 15.26503 121.05154 21248 ft 432 kts 354°
2026-05-05 18:51 15.29509 121.04781 21740 ft 435 kts 354°
2026-05-05 18:51 15.32426 121.04418 22203 ft 439 kts 354°
2026-05-05 18:51 15.35431 121.04044 22667 ft 442 kts 354°
2026-05-05 18:52 15.38451 121.03669 23116 ft 445 kts 354°
2026-05-05 18:52 15.41485 121.03292 23548 ft 449 kts 354°
2026-05-05 18:52 15.44514 121.02876 23959 ft 453 kts 352°
2026-05-05 18:52 15.47561 121.02175 24357 ft 457 kts 346°
2026-05-05 18:53 15.50550 121.01132 24739 ft 462 kts 340°
2026-05-05 18:53 15.53439 120.99771 25102 ft 467 kts 336°
2026-05-05 18:53 15.56255 120.98295 25450 ft 471 kts 335°
2026-05-05 18:53 15.59059 120.96790 25773 ft 474 kts 335°
2026-05-05 18:54 15.61971 120.95223 26094 ft 478 kts 335°
2026-05-05 18:54 15.64902 120.93649 26412 ft 481 kts 335°
2026-05-05 18:54 15.67792 120.92101 26719 ft 484 kts 335°
2026-05-05 18:54 15.70805 120.90492 27028 ft 486 kts 335°
2026-05-05 18:55 15.73778 120.88905 27320 ft 489 kts 335°
2026-05-05 18:55 15.76768 120.87312 27605 ft 492 kts 335°
2026-05-05 18:55 15.79833 120.85678 27888 ft 494 kts 335°
2026-05-05 18:55 15.82851 120.84070 28159 ft 497 kts 335°
2026-05-05 18:56 15.85932 120.82427 28424 ft 499 kts 335°
2026-05-05 18:56 15.89023 120.80779 28681 ft 502 kts 335°
2026-05-05 18:56 15.92094 120.79141 28929 ft 504 kts 335°
2026-05-05 18:56 15.95170 120.77499 29179 ft 506 kts 335°
2026-05-05 18:57 15.98260 120.75850 29515 ft 506 kts 335°
2026-05-05 18:57 16.01408 120.74168 29891 ft 505 kts 335°
2026-05-05 18:57 16.04527 120.72501 30244 ft 505 kts 335°
2026-05-05 18:57 16.07551 120.70885 30566 ft 505 kts 335°
2026-05-05 18:58 16.10281 120.69425 30848 ft 505 kts 335°
2026-05-05 18:58 16.13636 120.67637 31190 ft 505 kts 335°
2026-05-05 18:58 16.16771 120.65968 31504 ft 505 kts 335°
2026-05-05 18:58 16.19892 120.64304 31813 ft 505 kts 335°
2026-05-05 18:59 16.22996 120.62646 32117 ft 505 kts 335°
2026-05-05 18:59 16.26103 120.60983 32392 ft 505 kts 335°
2026-05-05 18:59 16.29214 120.59317 32623 ft 507 kts 335°
2026-05-05 18:59 16.32317 120.57654 32831 ft 508 kts 335°
2026-05-05 19:00 16.35466 120.55965 33041 ft 509 kts 335°
2026-05-05 19:00 16.38628 120.54268 33258 ft 510 kts 335°
2026-05-05 19:00 16.41765 120.52583 33505 ft 511 kts 335°
2026-05-05 19:00 16.44898 120.50899 33732 ft 511 kts 335°
2026-05-05 19:01 16.48068 120.49195 33911 ft 513 kts 334°
2026-05-05 19:01 16.51253 120.47480 33941 ft 514 kts 334°
2026-05-05 19:01 16.57563 120.44079 33949 ft 514 kts 334°
2026-05-05 19:02 16.63863 120.40665 33951 ft 515 kts 333°
2026-05-05 19:02 16.69953 120.36814 33950 ft 516 kts 327°
2026-05-05 19:03 16.75630 120.32305 33939 ft 518 kts 321°
2026-05-05 19:03 16.80857 120.27137 33926 ft 519 kts 315°
2026-05-05 19:04 16.85779 120.21710 33914 ft 519 kts 314°
2026-05-05 19:04 16.90681 120.16283 33906 ft 519 kts 314°
2026-05-05 19:05 16.95659 120.10797 33902 ft 519 kts 315°
2026-05-05 19:05 17.00638 120.05320 33899 ft 520 kts 315°
2026-05-05 19:06 17.05600 119.99861 33897 ft 522 kts 315°
2026-05-05 19:06 17.10568 119.94393 33896 ft 523 kts 315°
2026-05-05 19:07 17.14738 119.89825 33897 ft 524 kts 315°
2026-05-05 19:07 17.20564 119.83432 33898 ft 524 kts 315°
2026-05-05 19:08 17.25551 119.77936 33898 ft 524 kts 315°
2026-05-05 19:08 17.30523 119.72444 33898 ft 524 kts 315°
2026-05-05 19:09 17.35524 119.66916 33898 ft 524 kts 315°
2026-05-05 19:09 17.40545 119.61360 33898 ft 524 kts 315°
2026-05-05 19:10 17.45514 119.55857 33898 ft 524 kts 315°
2026-05-05 19:10 17.50490 119.50342 33898 ft 524 kts 315°
2026-05-05 19:11 17.55491 119.44793 33898 ft 524 kts 315°
2026-05-05 19:11 17.60448 119.39288 33898 ft 524 kts 315°
2026-05-05 19:12 17.65441 119.33736 33896 ft 524 kts 314°
2026-05-05 19:12 17.70385 119.28204 33897 ft 524 kts 314°
2026-05-05 19:13 17.75350 119.22658 33898 ft 523 kts 314°
2026-05-05 19:13 17.80318 119.17118 33898 ft 523 kts 314°
2026-05-05 19:14 17.85246 119.11623 33898 ft 523 kts 314°
2026-05-05 19:14 17.90227 119.06062 33898 ft 523 kts 314°
2026-05-05 19:15 17.94957 119.00777 33898 ft 522 kts 314°
2026-05-05 19:15 18.00020 118.95118 33898 ft 521 kts 314°
2026-05-05 19:16 18.04941 118.89618 33898 ft 519 kts 314°
2026-05-05 19:16 18.09865 118.84106 33898 ft 517 kts 313°
2026-05-05 19:17 18.14744 118.78665 33898 ft 515 kts 314°
2026-05-05 19:17 18.19629 118.73209 33898 ft 514 kts 313°
2026-05-05 19:18 18.24502 118.67744 33898 ft 514 kts 313°
2026-05-05 19:18 18.29307 118.62344 33898 ft 514 kts 313°
2026-05-05 19:19 18.34174 118.56869 33898 ft 514 kts 313°
2026-05-05 19:19 18.39036 118.51392 33898 ft 514 kts 313°
2026-05-05 19:20 18.43898 118.45912 33898 ft 514 kts 313°
2026-05-05 19:20 18.48758 118.40430 33898 ft 514 kts 313°
2026-05-05 19:21 18.53639 118.34917 33898 ft 514 kts 313°
2026-05-05 19:21 18.58443 118.29459 33897 ft 514 kts 313°
2026-05-05 19:22 18.63294 118.23949 33898 ft 514 kts 313°
2026-05-05 19:22 18.68166 118.18425 33898 ft 514 kts 313°
2026-05-05 19:23 18.73017 118.12926 33898 ft 514 kts 313°
2026-05-05 19:23 18.77881 118.07409 33898 ft 514 kts 313°
2026-05-05 19:24 18.82739 118.01893 33898 ft 514 kts 313°
2026-05-05 19:24 18.87576 117.96395 33898 ft 514 kts 313°
2026-05-05 19:25 18.92446 117.90857 33897 ft 516 kts 313°
2026-05-05 19:25 18.97337 117.85287 33897 ft 518 kts 313°
2026-05-05 19:26 19.02201 117.79742 33897 ft 520 kts 312°
2026-05-05 19:26 19.07131 117.74126 33897 ft 521 kts 312°
2026-05-05 19:27 19.12052 117.68518 33897 ft 522 kts 312°
2026-05-05 19:27 19.16991 117.62913 33898 ft 522 kts 312°
2026-05-05 19:28 19.21895 117.57323 33898 ft 522 kts 312°
2026-05-05 19:28 19.26814 117.51697 33898 ft 522 kts 312°
2026-05-05 19:29 19.31716 117.46079 33898 ft 522 kts 312°
2026-05-05 19:29 19.36635 117.40436 33898 ft 522 kts 312°
2026-05-05 19:30 19.41517 117.34830 33898 ft 522 kts 311°
2026-05-05 19:30 19.46388 117.29204 33897 ft 522 kts 311°
2026-05-05 19:31 19.51265 117.23570 33898 ft 522 kts 311°
2026-05-05 19:31 19.56130 117.17961 33898 ft 522 kts 311°
2026-05-05 19:32 19.60926 117.12431 33898 ft 522 kts 311°
2026-05-05 19:32 19.65696 117.06918 33899 ft 521 kts 312°
2026-05-05 19:33 19.70519 117.01341 33910 ft 517 kts 313°
2026-05-05 19:33 19.75317 116.95797 33931 ft 512 kts 314°
2026-05-05 19:34 19.80072 116.90301 33956 ft 507 kts 314°
2026-05-05 19:35 19.87160 116.82093 33984 ft 503 kts 313°
2026-05-05 19:35 19.91874 116.76621 33992 ft 503 kts 313°
2026-05-05 19:36 19.96488 116.71107 33995 ft 503 kts 310°
2026-05-05 19:36 20.00647 116.65152 33998 ft 504 kts 304°
2026-05-05 19:37 20.04230 116.58723 34000 ft 505 kts 299°
2026-05-05 19:37 20.07468 116.52151 34000 ft 505 kts 298°
2026-05-05 19:38 20.10731 116.45493 33997 ft 505 kts 298°
2026-05-05 19:38 20.13987 116.38933 33991 ft 505 kts 299°
2026-05-05 19:39 20.17232 116.32368 33986 ft 505 kts 298°
2026-05-05 19:39 20.20335 116.26032 33982 ft 505 kts 298°
2026-05-05 19:40 20.23561 116.19447 33980 ft 505 kts 298°
2026-05-05 19:40 20.26800 116.12837 33979 ft 505 kts 298°
2026-05-05 19:41 20.30045 116.06207 33979 ft 505 kts 298°
2026-05-05 19:41 20.33292 115.99580 33979 ft 505 kts 298°
2026-05-05 19:42 20.36519 115.92998 33979 ft 505 kts 298°
2026-05-05 19:42 20.39768 115.86349 33979 ft 505 kts 298°
2026-05-05 19:43 20.42994 115.79732 33979 ft 505 kts 298°
2026-05-05 19:43 20.46215 115.73110 33979 ft 505 kts 298°
2026-05-05 19:44 20.49445 115.66460 33979 ft 505 kts 298°
2026-05-05 19:44 20.52823 115.59914 33978 ft 505 kts 302°
2026-05-05 19:45 20.56785 115.53750 33978 ft 504 kts 308°
2026-05-05 19:45 20.61297 115.48100 33978 ft 503 kts 315°
2026-05-05 19:46 20.66235 115.42855 33979 ft 503 kts 317°
2026-05-05 19:46 20.71216 115.37676 33979 ft 503 kts 317°
2026-05-05 19:47 20.76189 115.32470 33978 ft 503 kts 316°
2026-05-05 19:47 20.81169 115.27216 33979 ft 503 kts 316°
2026-05-05 19:48 20.86105 115.22022 33979 ft 503 kts 316°
2026-05-05 19:48 20.91102 115.16770 33979 ft 503 kts 316°
2026-05-05 19:49 20.96060 115.11551 33979 ft 502 kts 316°
2026-05-05 19:49 21.01021 115.06322 33979 ft 501 kts 317°
2026-05-05 19:50 21.05952 115.01125 33980 ft 499 kts 317°
2026-05-05 19:50 21.10636 114.96187 33980 ft 497 kts 317°
2026-05-05 19:51 21.15655 114.90917 33979 ft 496 kts 317°
2026-05-05 19:51 21.20549 114.85759 33979 ft 496 kts 317°
2026-05-05 19:52 21.25419 114.80608 33979 ft 496 kts 316°
2026-05-05 19:52 21.30327 114.75403 33979 ft 496 kts 316°
2026-05-05 19:53 21.35207 114.70222 33979 ft 496 kts 316°
2026-05-05 19:53 21.40070 114.65050 33979 ft 496 kts 316°
2026-05-05 19:54 21.44969 114.59834 33979 ft 496 kts 316°
2026-05-05 19:54 21.50360 114.55407 33970 ft 492 kts 337°
2026-05-05 19:55 21.56768 114.53037 33973 ft 483 kts 344°
2026-05-05 19:55 21.59883 114.51932 33966 ft 467 kts 338°
2026-05-05 19:55 21.62610 114.50102 33972 ft 462 kts 319°
2026-05-05 19:56 21.67043 114.45107 33982 ft 464 kts 314°
2026-05-05 19:56 21.71369 114.40005 33979 ft 464 kts 314°
2026-05-05 19:57 21.75711 114.34942 33979 ft 463 kts 314°
2026-05-05 19:57 21.80050 114.29884 33979 ft 464 kts 314°
2026-05-05 19:58 21.84438 114.24780 33979 ft 464 kts 314°
2026-05-05 19:58 21.88740 114.19717 33973 ft 464 kts 309°
2026-05-05 19:59 21.92134 114.13786 33979 ft 466 kts 300°
2026-05-05 19:59 21.95246 114.07659 33979 ft 466 kts 300°
2026-05-05 20:00 21.98293 114.01697 33979 ft 466 kts 300°
2026-05-05 20:00 22.01424 113.95612 33979 ft 466 kts 300°
2026-05-05 20:01 22.04543 113.89558 33979 ft 466 kts 300°
2026-05-05 20:01 22.07691 113.83440 33979 ft 466 kts 300°
2026-05-05 20:02 22.10759 113.77698 33962 ft 465 kts 309°
2026-05-05 20:02 22.13175 113.75292 33962 ft 460 kts 330°